Starlink 3389

operational
NORAD ID: 51124 Int'l Des: 2022-005 Owner: SPXS Country: US Constellation: starlink
LEOCIRCULAR

Über Starlink 3389

Beschreibung wird geladen...

Live-Position

3D-Globus wird geladen...

Nächste Überflüge

Höhenverlauf

Altitude vs Time

uPlot chart will show altitude changes over time

Zweizeiliger Elementsatz

1 51124U 22005W 25350.29819775 .00002319 00000-0 16373-3 0 9993
2 51124 53.2190 313.4808 0001429 96.3991 263.7164 15.08841932216150
Epoch: 16. Dez. 2025 • Age: 21 hours

Aktueller Status

Höhe 539.8 km
Geschwindigkeit 7.60 km/s
Subsatellitenpunkt 22.59°N, 41.97°W
Startdatum 19. Jan. 2022
Alter 3.9 years
Typ internet

Technische Details

Klassifizierung Payload
Masse 297.00 kg
Trockenmasse 275.00 kg
Gesamtmasse 297.00 kg
Länge 0.20 m
Durchmesser 2.80 m
Spannweite 9.00 m
Form Box + pan
Hersteller SPXS
Bus-Typ Starlink
Phasenstatus In Orbit
Besitzer/Staat SPXS/US

Große Konstellationen

Loading constellations...